MADRID / GETAFE current weather conditions

sailwx.info

Wind from 310 at 11 knots

Air temperature 19.0° C
Dewpoint 2.0° C

Last reported at 2015-Mar-29 11:00 UTC.
Time now 2015-Mar-29 13:49 UTC

Location: N 40°18' W 003°43'.
View on Google Maps.

See reports from other nearby stations

  
Tides and Currents Weather Stations Pressure Air Temp Water Temp Dewpoint Dewpoint Depression Visibility Wind Speed Wind Dir Waves Ship Positions
date/time (UTC)wind fromknots sea level pressurealtimeterstation pressurevisibilityair tempwater tempwave heightnotes
2015-Mar-29 11:00 310 11 19.0
2015-Mar-29 10:00 300 10 18.0
2015-Mar-29 09:00 290 8 17.0
2015-Mar-29 08:00 330 4 16.0
2015-Mar-29 07:00 310 13 13.0
2015-Mar-29 06:00 310 9 12.0
2015-Mar-29 05:00 330 5 11.0
2015-Mar-28 19:00 320 8 20.0
2015-Mar-28 18:00 320 13 22.0
2015-Mar-28 17:00 320 9 24.0
2015-Mar-28 16:00 210 9 23.0
2015-Mar-28 15:00 270 8 23.0
2015-Mar-28 14:00 23.0
2015-Mar-28 12:00 140 3 20.0
2015-Mar-28 11:00 120 3 18.0
2015-Mar-28 10:00 16.0
2015-Mar-28 09:00 100 2 13.0
2015-Mar-28 08:00 11.0
2015-Mar-28 07:00 020 2 8.0
2015-Mar-28 06:00 5.0
2015-Mar-28 05:00 7.0
2015-Mar-27 19:00 050 7 16.0
2015-Mar-27 18:00 030 7 5.419.0
2015-Mar-27 17:00 040 8 5.420.0
2015-Mar-27 15:00 050 5 5.419.0
2015-Mar-27 14:00 320 5 gusting 15 5.420.0
2015-Mar-27 13:00 5.419.0